Location: Bathurst
(33.4193°S, 149.5775°E)
Time: 22:22:32
(UTC+10:00)

Vanguard 3 - Pass Details

Date: 23 June 2021
Orbit: 508 x 3261 km, 33.4° (Epoch: 25 July)

Event Time Altitude Azimuth Distance (km) Brightness Sun altitude
Rises 17:11:14 0° 299° (WNW) 5,974 15.2 -2.5°
Reaches altitude 10° 17:14:41 10° 300° (WNW) 5,253 13.3 -3.2°
Maximum altitude 17:31:50 75° 22° (NNE) 3,287 10.2 -6.4°
Enters shadow 17:51:27 10° 102° (ESE) 5,900 10.9 -10.2°
